Location: Unspecified
(52.4292°N, 19.3359°E)
Time: 23:24:02
(UTC+02:00)

A-11 Canister half - Pass Details

Date: 24 May 2024
Orbit: 1515 x 1685 km, 47.2° (Epoch: 19 June)

Event Time Altitude Azimuth Distance (km) Brightness Sun altitude
Rises 04:25:41 0° 251° (WSW) 4,748 11.0 -1.8°
Reaches altitude 10° 04:28:49 10° 249° (WSW) 3,743 10.4 -1.5°
Maximum altitude 04:38:02 63° 171° (S) 1,682 9.2 -0.4°
Drops below altitude 10° 04:47:06 10° 94° (E) 3,676 11.9 0.8°
Sets 04:50:08 0° 91° (E) 4,658 12.6 1.2°
